Regional Weather Roundup
Issued by NWS

Home | Current Version | Previous Version | Text Only | Print | Product List | Glossary On
Versions: 1 2 3 4 5 6 7 8 9 10 11 12 13 14 15 16 17 18 19 20 21 22 23 24 25 26 27 28 29 30 31 32 33 34 35 36 37 38 39 40 41 42 43 44 45 46 47 48 49 50
000
ASUS43 KBIS 292010
RWRND

NORTH DAKOTA REGIONAL WEATHER ROUNDUP
NATIONAL WEATHER SERVICE BISMARCK ND
300 PM CDT FRI APR 29 2016

NOTE: "FAIR" INDICATES FEW OR NO CLOUDS BELOW 12,000 FEET WITH NO
SIGNIFICANT WEATHER AND/OR OBSTRUCTIONS TO VISIBILITY.


NDZ001>003-009>011-017-292100-
NORTHWEST NORTH DAKOTA

CITY           SKY/WX    TMP DP  RH WIND       PRES   REMARKS
WILLISTON      CLOUDY    57  28  33 SE13      30.13S
MINOT          SUNNY     64  19  17 E8        30.13F
MINOT AFB      SUNNY     60  24  25 E10G17    30.12F
$$

NDZ018>021-031>035-040>046-292100-
SOUTHWEST NORTH DAKOTA

CITY           SKY/WX    TMP DP  RH WIND       PRES   REMARKS
BISMARCK       MOSUNNY   60  34  37 SE14      30.12R
DICKINSON      CLOUDY    55  29  36 SE13G21   30.08F
GARRISON         N/A     60  24  25 E12G21    30.12S
HETTINGER ARPT CLOUDY    53  31  42 E12       30.09F
$$

NDZ004>008-012>016-024-026-027-054-292100-
NORTHEAST NORTH DAKOTA

CITY           SKY/WX    TMP DP  RH WIND       PRES   REMARKS
GRAND FORKS    MOSUNNY   63  32  31 NE14G23   30.14F
GRND FRKS AFB  SUNNY     63  30  29 E14G24    30.14F
DEVILS LAKE    SUNNY     58  28  32 E14G21    30.16F
$$

NDZ022-023-025-028>030-036>039-047>053-292100-
SOUTHEAST NORTH DAKOTA

CITY           SKY/WX    TMP DP  RH WIND       PRES   REMARKS
FARGO          SUNNY     63  31  30 E7G24     30.11R
JAMESTOWN      SUNNY     60  32  34 E14G21    30.12R
$$




USA.gov is the U.S. government's official web portal to all federal, state and local government web resources and services.